| time (UTC) | temp F | wind direction | speed MPH | gust MPH | rain 1hr in | rain 24hr in | rain mn in | humidity % | barometer mb |
| 20260510064913 | 50 | 142 | 0.0 | 0.0 | 0.00 | 0.00 | 0.00 | 89 | 1014.3 |
| 20260510064411 | 50 | 129 | 0.0 | 0.0 | 0.00 | 0.00 | 0.00 | 89 | 1014.5 |
| 20260510063907 | 50 | 129 | 0.0 | 0.0 | 0.00 | 0.00 | 0.00 | 88 | 1014.3 |
| 20260510063403 | 50 | 137 | 1.0 | 1.0 | 0.00 | 0.00 | 0.00 | 89 | 1014.5 |
| 20260510062901 | 51 | 127 | 0.0 | 0.0 | 0.00 | 0.00 | 0.00 | 88 | 1014.6 |
| 20260510062355 | 51 | 127 | 3.0 | 3.0 | 0.00 | 0.00 | 0.00 | 87 | 1014.3 |
| 20260510061851 | 51 | 104 | 4.0 | 5.0 | 0.00 | 0.00 | 0.00 | 87 | 1014.2 |
| 20260510061348 | 51 | 122 | 6.0 | 7.0 | 0.00 | 0.00 | 0.00 | 87 | 1014.3 |
| 20260510060844 | 51 | 130 | 6.0 | 7.0 | 0.00 | 0.00 | 0.00 | 87 | 1014.3 |
| 20260510060342 | 51 | 105 | 4.0 | 5.0 | 0.00 | 0.00 | 0.00 | 86 | 1014.2 |
| 20260510055838 | 51 | 106 | 5.0 | 6.0 | 0.00 | 0.00 | 0.00 | 87 | 1014.5 |
| 20260510055337 | 51 | 122 | 6.0 | 7.0 | 0.00 | 0.00 | 0.00 | 87 | 1014.5 |
| 20260510054836 | 51 | 114 | 4.0 | 5.0 | 0.00 | 0.00 | 0.00 | 88 | 1014.3 |
| 20260510054332 | 51 | 133 | 3.0 | 3.0 | 0.00 | 0.00 | 0.00 | 88 | 1014.3 |
| 20260510053827 | 51 | 121 | 2.0 | 2.0 | 0.00 | 0.00 | 0.00 | 88 | 1014.2 |
| 20260510053323 | 51 | 119 | 3.0 | 3.0 | 0.00 | 0.00 | 0.00 | 87 | 1014.5 |
| 20260510052820 | 51 | 111 | 4.0 | 6.0 | 0.00 | 0.00 | 0.00 | 87 | 1014.5 |
| 20260510052315 | 52 | 119 | 3.0 | 5.0 | 0.00 | 0.00 | 0.00 | 86 | 1014.5 |
| 20260510051812 | 52 | 113 | 7.0 | 9.0 | 0.00 | 0.00 | 0.00 | 86 | 1014.3 |
| 20260510051309 | 52 | 120 | 9.0 | 10.0 | 0.00 | 0.00 | 0.00 | 86 | 1014.3 |
| 20260510050806 | 52 | 121 | 7.0 | 9.0 | 0.00 | 0.00 | 0.00 | 86 | 1014.6 |
| 20260510050302 | 52 | 104 | 9.0 | 13.0 | 0.00 | 0.00 | 0.00 | 85 | 1014.8 |
| 20260510045800 | 52 | 144 | 7.0 | 8.0 | 0.00 | 0.00 | 0.00 | 85 | 1014.2 |
| 20260510045256 | 53 | 150 | 5.0 | 7.0 | 0.00 | 0.00 | 0.00 | 84 | 1014.5 |
| 20260510044753 | 53 | 141 | 5.0 | 6.0 | 0.00 | 0.00 | 0.00 | 84 | 1014.5 |
| 20260510044250 | 53 | 124 | 6.0 | 7.0 | 0.00 | 0.00 | 0.00 | 83 | 1014.7 |
| 20260510043746 | 54 | 140 | 3.0 | 3.0 | 0.00 | 0.00 | 0.00 | 82 | 1014.2 |
| 20260510043243 | 54 | 126 | 6.0 | 7.0 | 0.00 | 0.00 | 0.00 | 80 | 1014.5 |
| 20260510042740 | 55 | 133 | 7.0 | 8.0 | 0.00 | 0.00 | 0.00 | 79 | 1014.2 |
| 20260510042236 | 55 | 126 | 8.0 | 9.0 | 0.00 | 0.00 | 0.00 | 79 | 1014.2 |
| 20260510041733 | 56 | 111 | 9.0 | 11.0 | 0.00 | 0.00 | 0.00 | 78 | 1014.5 |
| 20260510041230 | 56 | 123 | 10.0 | 11.0 | 0.00 | 0.00 | 0.00 | 77 | 1014.5 |
| 20260510040727 | 57 | 113 | 10.0 | 11.0 | 0.00 | 0.00 | 0.00 | 76 | 1014.2 |
| 20260510040224 | 57 | 130 | 6.0 | 9.0 | 0.00 | 0.00 | 0.00 | 75 | 1014.2 |
| 20260510035719 | 57 | 101 | 7.0 | 7.0 | 0.00 | 0.00 | 0.00 | 74 | 1014.0 |
| 20260510035215 | 57 | 105 | 10.0 | 11.0 | 0.00 | 0.00 | 0.00 | 74 | 1014.0 |
| 20260510034711 | 57 | 122 | 8.0 | 9.0 | 0.00 | 0.00 | 0.00 | 73 | 1013.9 |
| 20260510034210 | 58 | 103 | 7.0 | 8.0 | 0.00 | 0.00 | 0.00 | 72 | 1013.9 |
| 20260510033705 | 58 | 110 | 6.0 | 7.0 | 0.00 | 0.00 | 0.00 | 70 | 1014.1 |
| 20260510033203 | 58 | 102 | 6.0 | 8.0 | 0.00 | 0.00 | 0.00 | 69 | 1013.9 |
| 20260510032659 | 59 | 112 | 6.0 | 7.0 | 0.00 | 0.00 | 0.00 | 66 | 1013.7 |
| 20260510032155 | 59 | 108 | 5.0 | 7.0 | 0.00 | 0.00 | 0.00 | 66 | 1013.8 |
| 20260510031649 | 59 | 145 | 1.0 | 2.0 | 0.00 | 0.00 | 0.00 | 66 | 1013.4 |
| 20260510031146 | 60 | 128 | 2.0 | 2.0 | 0.00 | 0.00 | 0.00 | 66 | 1013.4 |
| 20260510030641 | 61 | 141 | 2.0 | 2.0 | 0.00 | 0.00 | 0.00 | 65 | 1013.5 |
| 20260510030139 | 61 | 141 | 2.0 | 2.0 | 0.00 | 0.00 | 0.00 | 65 | 1013.4 |
| 20260510025636 | 61 | 138 | 2.0 | 2.0 | 0.00 | 0.00 | 0.00 | 64 | 1013.4 |
| 20260510025133 | 62 | 140 | 1.0 | 1.0 | 0.00 | 0.00 | 0.00 | 63 | 1013.4 |
| 20260510024630 | 63 | 120 | 3.0 | 3.0 | 0.00 | 0.00 | 0.00 | 62 | 1013.2 |
| 20260510024126 | 63 | 131 | 5.0 | 6.0 | 0.00 | 0.00 | 0.00 | 62 | 1013.1 |
| 20260510023622 | 63 | 144 | 3.0 | 3.0 | 0.00 | 0.00 | 0.00 | 61 | 1013.0 |
| 20260510023120 | 64 | 116 | 3.0 | 3.0 | 0.00 | 0.00 | 0.00 | 60 | 1013.1 |
| 20260510022619 | 64 | 120 | 2.0 | 2.0 | 0.00 | 0.00 | 0.00 | 60 | 1013.1 |
| 20260510022114 | 64 | 113 | 3.0 | 3.0 | 0.00 | 0.00 | 0.00 | 60 | 1012.7 |
| 20260510021610 | 64 | 114 | 3.0 | 3.0 | 0.00 | 0.00 | 0.00 | 60 | 1013.1 |
| 20260510021108 | 64 | 119 | 3.0 | 3.0 | 0.00 | 0.00 | 0.00 | 60 | 1013.0 |
| 20260510020602 | 64 | 120 | 4.0 | 5.0 | 0.00 | 0.00 | 0.00 | 60 | 1013.0 |
| 20260510020058 | 64 | 135 | 3.0 | 3.0 | 0.00 | 0.00 | 0.00 | 60 | 1013.0 |
| 20260510015554 | 64 | 137 | 0.0 | 0.0 | 0.00 | 0.00 | 0.00 | 60 | 1012.8 |
| 20260510015050 | 64 | 137 | 0.0 | 0.0 | 0.00 | 0.00 | 0.00 | 60 | 1012.9 |
| 20260510014546 | 65 | 138 | 0.0 | 0.0 | 0.00 | 0.00 | 0.00 | 61 | 1013.1 |
| 20260510014044 | 65 | 138 | 0.0 | 0.0 | 0.00 | 0.00 | 0.00 | 61 | 1012.8 |
| 20260510013538 | 65 | 139 | 1.0 | 2.0 | 0.00 | 0.00 | 0.00 | 59 | 1013.0 |
| 20260510013034 | 65 | 139 | 0.0 | 0.0 | 0.00 | 0.00 | 0.00 | 58 | 1012.9 |
| 20260510012528 | 65 | 141 | 0.0 | 0.0 | 0.00 | 0.00 | 0.00 | 58 | 1012.7 |
| 20260510012025 | 65 | 139 | 0.0 | 0.0 | 0.00 | 0.00 | 0.00 | 59 | 1013.4 |
| 20260510011524 | 65 | 138 | 0.0 | 0.0 | 0.00 | 0.00 | 0.00 | 59 | 1013.0 |
| 20260510011020 | 65 | 134 | 2.0 | 2.0 | 0.00 | 0.00 | 0.00 | 58 | 1013.2 |
| 20260510010518 | 65 | 133 | 1.0 | 2.0 | 0.00 | 0.00 | 0.00 | 58 | 1013.0 |
| 20260510010014 | 65 | 132 | 2.0 | 2.0 | 0.00 | 0.00 | 0.00 | 59 | 1013.1 |
| 20260510005510 | 65 | 132 | 4.0 | 5.0 | 0.00 | 0.00 | 0.00 | 59 | 1013.2 |
| 20260510005008 | 65 | 133 | 2.0 | 2.0 | 0.00 | 0.00 | 0.00 | 58 | 1013.1 |
| 20260510004505 | 65 | 205 | 0.0 | 0.0 | 0.00 | 0.00 | 0.00 | 58 | 1013.2 |
| 20260510004003 | 66 | 205 | 2.0 | 2.0 | 0.00 | 0.00 | 0.00 | 58 | 1013.1 |
| 20260510003459 | 65 | 205 | 0.0 | 0.0 | 0.00 | 0.00 | 0.00 | 58 | 1013.2 |
| 20260510002955 | 65 | 205 | 0.0 | 0.0 | 0.00 | 0.00 | 0.00 | 59 | 1013.0 |
| 20260510002451 | 65 | 205 | 0.0 | 0.0 | 0.00 | 0.00 | 0.00 | 59 | 1013.2 |
| 20260510001947 | 65 | 205 | 0.0 | 0.0 | 0.00 | 0.00 | 0.00 | 59 | 1013.2 |
| 20260510001445 | 65 | 205 | 0.0 | 0.0 | 0.00 | 0.00 | 0.00 | 59 | 1013.1 |
| 20260510000943 | 64 | 205 | 0.0 | 0.0 | 0.00 | 0.00 | 0.00 | 60 | 1013.1 |
| 20260510000440 | 64 | 205 | 0.0 | 0.0 | 0.00 | 0.00 | 0.00 | 61 | 1013.4 |
| 20260509235935 | 64 | 205 | 0.0 | 0.0 | 0.00 | 0.00 | 0.00 | 63 | 1013.1 |
| 20260509235432 | 64 | 205 | 0.0 | 0.0 | 0.00 | 0.00 | 0.00 | 62 | 1013.0 |
| 20260509234928 | 64 | 205 | 1.0 | 1.0 | 0.00 | 0.00 | 0.00 | 62 | 1013.2 |
| 20260509234425 | 64 | 206 | 0.0 | 0.0 | 0.00 | 0.00 | 0.00 | 61 | 1013.2 |
| 20260509233923 | 64 | 206 | 0.0 | 0.0 | 0.00 | 0.00 | 0.00 | 62 | 1013.4 |
| 20260509233420 | 63 | 206 | 0.0 | 0.0 | 0.00 | 0.00 | 0.00 | 65 | 1013.1 |
| 20260509232916 | 63 | 246 | 4.0 | 5.0 | 0.00 | 0.00 | 0.00 | 66 | 1013.2 |
| 20260509232414 | 62 | 182 | 2.0 | 2.0 | 0.00 | 0.00 | 0.00 | 66 | 1013.5 |
| 20260509231909 | 64 | 231 | 5.0 | 6.0 | 0.00 | 0.00 | 0.00 | 67 | 1013.1 |
| 20260509231407 | 66 | 214 | 8.0 | 9.0 | 0.00 | 0.00 | 0.00 | 56 | 1013.1 |
| 20260509230905 | 65 | 161 | 1.0 | 1.0 | 0.00 | 0.00 | 0.00 | 56 | 1013.0 |
| 20260509230401 | 66 | 194 | 4.0 | 5.0 | 0.00 | 0.00 | 0.00 | 56 | 1013.2 |
| 20260509225857 | 65 | 172 | 3.0 | 3.0 | 0.00 | 0.00 | 0.00 | 56 | 1013.2 |
| 20260509225354 | 65 | 157 | 2.0 | 2.0 | 0.00 | 0.00 | 0.00 | 56 | 1013.1 |
| 20260509224849 | 66 | 210 | 3.0 | 3.0 | 0.00 | 0.00 | 0.00 | 55 | 1013.2 |
| 20260509224345 | 65 | 202 | 5.0 | 5.0 | 0.00 | 0.00 | 0.00 | 56 | 1013.1 |
| 20260509223843 | 65 | 241 | 6.0 | 7.0 | 0.00 | 0.00 | 0.00 | 56 | 1013.4 |
| 20260509223339 | 65 | 129 | 0.0 | 0.0 | 0.00 | 0.00 | 0.00 | 55 | 1013.4 |
| 20260509222837 | 66 | 195 | 3.0 | 5.0 | 0.00 | 0.00 | 0.00 | 55 | 1013.1 |
| 20260509222332 | 65 | 261 | 2.0 | 3.0 | 0.00 | 0.00 | 0.00 | 55 | 1013.4 |
| 20260509221827 | 66 | 298 | 5.0 | 7.0 | 0.00 | 0.00 | 0.00 | 55 | 1013.4 |
| 20260509221325 | 66 | 251 | 9.0 | 10.0 | 0.00 | 0.00 | 0.00 | 54 | 1013.2 |
| 20260509220825 | 66 | 213 | 5.0 | 6.0 | 0.00 | 0.00 | 0.00 | 54 | 1013.6 |
| 20260509220321 | 66 | 125 | 0.0 | 0.0 | 0.00 | 0.00 | 0.00 | 55 | 1013.5 |
| 20260509215817 | 65 | 148 | 1.0 | 1.0 | 0.00 | 0.00 | 0.00 | 55 | 1013.5 |
| 20260509215314 | 65 | 236 | 5.0 | 5.0 | 0.00 | 0.00 | 0.00 | 54 | 1013.5 |
| 20260509214811 | 65 | 189 | 1.0 | 2.0 | 0.00 | 0.00 | 0.00 | 54 | 1013.7 |
| 20260509214308 | 65 | 203 | 2.0 | 3.0 | 0.00 | 0.00 | 0.00 | 54 | 1013.7 |
| 20260509213805 | 66 | 239 | 3.0 | 3.0 | 0.00 | 0.00 | 0.00 | 54 | 1013.5 |
| 20260509213300 | 66 | 305 | 3.0 | 3.0 | 0.00 | 0.00 | 0.00 | 54 | 1013.9 |
| 20260509212758 | 66 | 207 | 3.0 | 3.0 | 0.00 | 0.00 | 0.00 | 54 | 1013.6 |
| 20260509212255 | 67 | 231 | 6.0 | 7.0 | 0.00 | 0.00 | 0.00 | 55 | 1013.6 |
| 20260509211751 | 66 | 223 | 6.0 | 7.0 | 0.00 | 0.00 | 0.00 | 54 | 1013.6 |
| 20260509211247 | 65 | 269 | 3.0 | 3.0 | 0.00 | 0.00 | 0.00 | 54 | 1013.9 |
| 20260509210744 | 65 | 237 | 5.0 | 7.0 | 0.00 | 0.00 | 0.00 | 54 | 1013.7 |
| 20260509210242 | 66 | 257 | 5.0 | 8.0 | 0.00 | 0.00 | 0.00 | 54 | 1013.7 |
| 20260509205741 | 65 | 198 | 3.0 | 5.0 | 0.00 | 0.00 | 0.00 | 54 | 1013.5 |
| 20260509205236 | 67 | 230 | 6.0 | 6.0 | 0.00 | 0.00 | 0.00 | 52 | 1013.7 |
| 20260509204732 | 66 | 329 | 3.0 | 5.0 | 0.00 | 0.00 | 0.00 | 53 | 1013.8 |
| 20260509204229 | 66 | 245 | 4.0 | 5.0 | 0.00 | 0.00 | 0.00 | 54 | 1013.8 |
| 20260509203725 | 67 | 212 | 7.0 | 9.0 | 0.00 | 0.00 | 0.00 | 52 | 1013.7 |
| 20260509203223 | 67 | 165 | 6.0 | 7.0 | 0.00 | 0.00 | 0.00 | 53 | 1013.8 |
| 20260509202719 | 65 | 13 | 2.0 | 2.0 | 0.00 | 0.00 | 0.00 | 53 | 1013.8 |
| 20260509202214 | 64 | 277 | 4.0 | 5.0 | 0.00 | 0.00 | 0.00 | 53 | 1013.7 |
| 20260509201709 | 65 | 221 | 8.0 | 9.0 | 0.00 | 0.00 | 0.00 | 52 | 1013.6 |
| 20260509201206 | 67 | 217 | 9.0 | 11.0 | 0.00 | 0.00 | 0.00 | 53 | 1013.4 |
| 20260509200702 | 66 | 181 | 2.0 | 3.0 | 0.00 | 0.00 | 0.00 | 51 | 1013.4 |
| 20260509200157 | 66 | 236 | 8.0 | 9.0 | 0.00 | 0.00 | 0.00 | 52 | 1013.7 |
| 20260509195654 | 65 | 213 | 5.0 | 6.0 | 0.00 | 0.00 | 0.00 | 53 | 1013.5 |
| 20260509195149 | 66 | 235 | 11.0 | 11.0 | 0.00 | 0.00 | 0.00 | 52 | 1013.6 |
| 20260509194643 | 67 | 218 | 4.0 | 5.0 | 0.00 | 0.00 | 0.00 | 52 | 1013.7 |
| 20260509194140 | 66 | 328 | 1.0 | 5.0 | 0.00 | 0.00 | 0.00 | 54 | 1013.6 |
| 20260509193636 | 65 | 190 | 2.0 | 5.0 | 0.00 | 0.00 | 0.00 | 53 | 1013.5 |
| 20260509193132 | 64 | 167 | 8.0 | 9.0 | 0.00 | 0.00 | 0.00 | 54 | 1013.7 |
| 20260509192629 | 64 | 175 | 6.0 | 7.0 | 0.00 | 0.00 | 0.00 | 53 | 1013.7 |
| 20260509192123 | 63 | 235 | 6.0 | 7.0 | 0.00 | 0.00 | 0.00 | 53 | 1013.7 |
| 20260509191618 | 64 | 231 | 9.0 | 10.0 | 0.00 | 0.00 | 0.00 | 53 | 1013.7 |
| 20260509191115 | 64 | 171 | 2.0 | 2.0 | 0.00 | 0.00 | 0.00 | 53 | 1013.9 |
| 20260509190611 | 63 | 181 | 3.0 | 3.0 | 0.00 | 0.00 | 0.00 | 53 | 1013.8 |
| 20260509190109 | 64 | 208 | 6.0 | 7.0 | 0.00 | 0.00 | 0.00 | 53 | 1013.9 |
| 20260509185606 | 64 | 271 | 6.0 | 7.0 | 0.00 | 0.00 | 0.00 | 53 | 1013.5 |
| 20260509185102 | 63 | 174 | 1.0 | 2.0 | 0.00 | 0.00 | 0.00 | 53 | 1013.8 |
| 20260509184601 | 63 | 239 | 9.0 | 9.0 | 0.00 | 0.00 | 0.00 | 53 | 1013.6 |
| 20260509184057 | 64 | 159 | 2.0 | 2.0 | 0.00 | 0.00 | 0.00 | 53 | 1013.7 |
| 20260509183552 | 63 | 163 | 4.0 | 5.0 | 0.00 | 0.00 | 0.00 | 54 | 1013.9 |
| 20260509183048 | 64 | 151 | 3.0 | 3.0 | 0.00 | 0.00 | 0.00 | 53 | 1013.8 |
| 20260509182545 | 64 | 154 | 3.0 | 5.0 | 0.00 | 0.00 | 0.00 | 53 | 1013.5 |
| 20260509182042 | 64 | 156 | 2.0 | 2.0 | 0.00 | 0.00 | 0.00 | 53 | 1013.7 |
| 20260509181540 | 63 | 93 | 2.0 | 2.0 | 0.00 | 0.00 | 0.00 | 52 | 1013.5 |
| 20260509181037 | 64 | 145 | 0.0 | 0.0 | 0.00 | 0.00 | 0.00 | 52 | 1013.6 |
| 20260509180532 | 63 | 176 | 2.0 | 3.0 | 0.00 | 0.00 | 0.00 | 53 | 1013.7 |
| 20260509180030 | 63 | 136 | 2.0 | 2.0 | 0.00 | 0.00 | 0.00 | 53 | 1013.6 |
| 20260509175526 | 63 | 142 | 0.0 | 0.0 | 0.00 | 0.00 | 0.00 | 53 | 1013.6 |
| 20260509175023 | 63 | 147 | 1.0 | 1.0 | 0.00 | 0.00 | 0.00 | 53 | 1013.5 |
| 20260509174519 | 63 | 125 | 0.0 | 0.0 | 0.00 | 0.00 | 0.00 | 53 | 1013.5 |
| 20260509174014 | 62 | 137 | 0.0 | 0.0 | 0.00 | 0.00 | 0.00 | 54 | 1013.4 |
| 20260509173509 | 62 | 139 | 3.0 | 3.0 | 0.00 | 0.00 | 0.00 | 54 | 1013.6 |
| 20260509173005 | 62 | 98 | 4.0 | 5.0 | 0.00 | 0.00 | 0.00 | 53 | 1013.2 |
| 20260509172502 | 62 | 127 | 3.0 | 5.0 | 0.00 | 0.00 | 0.00 | 53 | 1013.2 |
| 20260509171958 | 62 | 198 | 3.0 | 3.0 | 0.00 | 0.00 | 0.00 | 52 | 1013.4 |
| 20260509171454 | 63 | 170 | 6.0 | 7.0 | 0.00 | 0.00 | 0.00 | 52 | 1013.4 |
| 20260509170951 | 64 | 170 | 3.0 | 3.0 | 0.00 | 0.00 | 0.00 | 53 | 1013.4 |
| 20260509170446 | 66 | 239 | 3.0 | 5.0 | 0.00 | 0.00 | 0.00 | 53 | 1013.2 |
| 20260509165942 | 65 | 136 | 1.0 | 1.0 | 0.00 | 0.00 | 0.00 | 53 | 1013.4 |
| 20260509165442 | 65 | 141 | 0.0 | 0.0 | 0.00 | 0.00 | 0.00 | 53 | 1013.2 |
| 20260509164937 | 64 | 130 | 0.0 | 0.0 | 0.00 | 0.00 | 0.00 | 55 | 1013.4 |
| 20260509164434 | 62 | 112 | 3.0 | 3.0 | 0.00 | 0.00 | 0.00 | 56 | 1013.4 |
| 20260509163929 | 62 | 134 | 0.0 | 0.0 | 0.00 | 0.00 | 0.00 | 56 | 1013.1 |
| 20260509163427 | 63 | 173 | 2.0 | 2.0 | 0.00 | 0.00 | 0.00 | 58 | 1013.4 |
| 20260509162926 | 62 | 112 | 0.0 | 0.0 | 0.00 | 0.00 | 0.00 | 58 | 1013.4 |
| 20260509162425 | 62 | 121 | 1.0 | 1.0 | 0.00 | 0.00 | 0.00 | 58 | 1013.2 |
| 20260509161921 | 61 | 125 | 2.0 | 2.0 | 0.00 | 0.00 | 0.00 | 58 | 1012.9 |
| 20260509161417 | 61 | 133 | 0.0 | 0.0 | 0.00 | 0.00 | 0.00 | 59 | 1013.2 |
| 20260509160913 | 61 | 194 | 3.0 | 3.0 | 0.00 | 0.00 | 0.00 | 59 | 1013.1 |
| 20260509160408 | 61 | 162 | 4.0 | 5.0 | 0.00 | 0.00 | 0.00 | 59 | 1013.2 |
| 20260509155903 | 62 | 121 | 0.0 | 0.0 | 0.00 | 0.00 | 0.00 | 57 | 1013.1 |
| 20260509155401 | 61 | 133 | 0.0 | 0.0 | 0.00 | 0.00 | 0.00 | 58 | 1012.8 |
| 20260509154857 | 60 | 110 | 1.0 | 1.0 | 0.00 | 0.00 | 0.00 | 59 | 1013.0 |
| 20260509154353 | 61 | 146 | 1.0 | 2.0 | 0.00 | 0.00 | 0.00 | 59 | 1012.9 |
| 20260509153850 | 60 | 125 | 0.0 | 0.0 | 0.00 | 0.00 | 0.00 | 60 | 1012.9 |
| 20260509153347 | 60 | 126 | 1.0 | 2.0 | 0.00 | 0.00 | 0.00 | 61 | 1012.8 |
| 20260509152844 | 59 | 115 | 0.0 | 0.0 | 0.00 | 0.00 | 0.00 | 60 | 1012.8 |
| 20260509152340 | 59 | 134 | 0.0 | 0.0 | 0.00 | 0.00 | 0.00 | 61 | 1012.6 |
| 20260509151837 | 59 | 147 | 1.0 | 2.0 | 0.00 | 0.00 | 0.00 | 61 | 1012.7 |
| 20260509151333 | 58 | 170 | 3.0 | 3.0 | 0.00 | 0.00 | 0.00 | 62 | 1012.8 |
| 20260509150832 | 58 | 148 | 1.0 | 1.0 | 0.00 | 0.00 | 0.00 | 61 | 1012.7 |
| 20260509150329 | 58 | 165 | 2.0 | 2.0 | 0.00 | 0.00 | 0.00 | 61 | 1012.4 |
| 20260509145826 | 58 | 134 | 1.0 | 2.0 | 0.00 | 0.00 | 0.00 | 61 | 1012.9 |
| 20260509145321 | 58 | 135 | 0.0 | 1.0 | 0.00 | 0.00 | 0.00 | 61 | 1012.6 |
| 20260509144818 | 57 | 135 | 0.0 | 1.0 | 0.00 | 0.00 | 0.00 | 62 | 1012.4 |
| 20260509144315 | 58 | 94 | 3.0 | 3.0 | 0.00 | 0.00 | 0.00 | 62 | 1012.5 |
| 20260509143812 | 58 | 122 | 0.0 | 0.0 | 0.00 | 0.00 | 0.00 | 62 | 1012.5 |
| 20260509143309 | 57 | 68 | 3.0 | 3.0 | 0.00 | 0.00 | 0.00 | 61 | 1012.6 |
| 20260509142805 | 57 | 83 | 4.0 | 5.0 | 0.00 | 0.00 | 0.00 | 63 | 1012.4 |
| 20260509142302 | 56 | 105 | 0.0 | 0.0 | 0.00 | 0.00 | 0.00 | 65 | 1012.5 |
| 20260509141757 | 56 | 91 | 1.0 | 2.0 | 0.00 | 0.00 | 0.00 | 64 | 1012.5 |
| 20260509141254 | 56 | 102 | 3.0 | 3.0 | 0.00 | 0.00 | 0.00 | 65 | 1012.5 |
| 20260509140751 | 57 | 130 | 0.0 | 1.0 | 0.00 | 0.00 | 0.00 | 65 | 1012.2 |
| 20260509140248 | 57 | 115 | 0.0 | 0.0 | 0.00 | 0.00 | 0.00 | 64 | 1012.3 |
| 20260509135746 | 56 | 119 | 0.0 | 0.0 | 0.00 | 0.00 | 0.00 | 66 | 1012.3 |
| 20260509135243 | 55 | 128 | 0.0 | 0.0 | 0.00 | 0.00 | 0.00 | 67 | 1012.2 |
| 20260509134740 | 55 | 181 | 2.0 | 2.0 | 0.00 | 0.00 | 0.00 | 68 | 1012.0 |
| 20260509134238 | 55 | 165 | 2.0 | 2.0 | 0.00 | 0.00 | 0.00 | 68 | 1011.8 |
| 20260509133735 | 54 | 151 | 1.0 | 2.0 | 0.00 | 0.00 | 0.00 | 67 | 1011.9 |
| 20260509133231 | 54 | 156 | 1.0 | 1.0 | 0.00 | 0.00 | 0.00 | 67 | 1011.9 |
| 20260509132730 | 54 | 188 | 3.0 | 3.0 | 0.00 | 0.00 | 0.00 | 68 | 1011.9 |
| 20260509132228 | 54 | 141 | 1.0 | 1.0 | 0.00 | 0.00 | 0.00 | 66 | 1011.8 |
| 20260509131724 | 53 | 107 | 0.0 | 0.0 | 0.00 | 0.00 | 0.00 | 66 | 1011.7 |
| 20260509131221 | 53 | 98 | 0.0 | 1.0 | 0.00 | 0.00 | 0.00 | 67 | 1011.7 |
| 20260509130717 | 53 | 69 | 3.0 | 3.0 | 0.00 | 0.00 | 0.00 | 67 | 1011.7 |
| 20260509130213 | 53 | 59 | 3.0 | 3.0 | 0.00 | 0.00 | 0.00 | 67 | 1011.5 |
| 20260509125710 | 52 | 113 | 0.0 | 0.0 | 0.00 | 0.00 | 0.00 | 67 | 1011.6 |
| 20260509125207 | 52 | 112 | 0.0 | 0.0 | 0.00 | 0.00 | 0.00 | 69 | 1011.3 |
| 20260509124703 | 52 | 144 | 0.0 | 0.0 | 0.00 | 0.00 | 0.00 | 69 | 1011.4 |
| 20260509124200 | 52 | 108 | 0.0 | 0.0 | 0.00 | 0.00 | 0.00 | 69 | 1011.2 |
| 20260509123658 | 52 | 152 | 1.0 | 2.0 | 0.00 | 0.00 | 0.00 | 68 | 1011.0 |
| 20260509123155 | 52 | 96 | 0.0 | 1.0 | 0.00 | 0.00 | 0.00 | 68 | 1011.1 |
| 20260509122650 | 52 | 281 | 3.0 | 3.0 | 0.00 | 0.00 | 0.00 | 67 | 1011.2 |
| 20260509122147 | 52 | 86 | 1.0 | 1.0 | 0.00 | 0.00 | 0.00 | 68 | 1011.1 |
| 20260509121644 | 52 | 112 | 0.0 | 0.0 | 0.00 | 0.00 | 0.00 | 68 | 1011.0 |
| 20260509121142 | 52 | 94 | 2.0 | 2.0 | 0.00 | 0.00 | 0.00 | 67 | 1011.1 |
| 20260509120640 | 52 | 107 | 1.0 | 2.0 | 0.00 | 0.00 | 0.00 | 67 | 1010.8 |
| 20260509120138 | 52 | 6 | 2.0 | 2.0 | 0.00 | 0.00 | 0.00 | 67 | 1010.8 |
| 20260509115635 | 51 | 19 | 2.0 | 2.0 | 0.00 | 0.00 | 0.00 | 68 | 1010.6 |
| 20260509115132 | 52 | 117 | 0.0 | 0.0 | 0.00 | 0.00 | 0.00 | 68 | 1010.7 |
| 20260509114630 | 52 | 319 | 0.0 | 0.0 | 0.00 | 0.00 | 0.00 | 68 | 1010.7 |
| 20260509114129 | 52 | 314 | 5.0 | 6.0 | 0.00 | 0.00 | 0.00 | 68 | 1010.8 |
| 20260509113627 | 52 | 305 | 6.0 | 7.0 | 0.00 | 0.00 | 0.00 | 67 | 1010.5 |
| 20260509113124 | 51 | 277 | 3.0 | 3.0 | 0.00 | 0.00 | 0.00 | 67 | 1010.7 |
| 20260509112620 | 51 | 278 | 5.0 | 6.0 | 0.00 | 0.00 | 0.00 | 69 | 1010.3 |
| 20260509112118 | 51 | 236 | 3.0 | 3.0 | 0.00 | 0.00 | 0.00 | 68 | 1010.5 |
| 20260509111615 | 51 | 173 | 1.0 | 1.0 | 0.00 | 0.00 | 0.00 | 68 | 1010.4 |
| 20260509111111 | 51 | 230 | 4.0 | 5.0 | 0.00 | 0.00 | 0.00 | 68 | 1010.3 |
| 20260509110609 | 52 | 118 | 1.0 | 1.0 | 0.00 | 0.00 | 0.00 | 68 | 1010.2 |
| 20260509110106 | 51 | 128 | 0.0 | 0.0 | 0.00 | 0.00 | 0.00 | 68 | 1010.3 |
| 20260509105604 | 51 | 95 | 1.0 | 1.0 | 0.00 | 0.00 | 0.00 | 67 | 1010.2 |
| 20260509105101 | 52 | 116 | 2.0 | 2.0 | 0.00 | 0.00 | 0.00 | 66 | 1010.1 |
| 20260509104558 | 52 | 57 | 0.0 | 0.0 | 0.00 | 0.00 | 0.00 | 66 | 1010.1 |
| 20260509104055 | 52 | 37 | 5.0 | 8.0 | 0.00 | 0.00 | 0.00 | 66 | 1010.1 |
| 20260509103553 | 51 | 13 | 5.0 | 7.0 | 0.00 | 0.00 | 0.00 | 66 | 1010.1 |
| 20260509103051 | 51 | 69 | 4.0 | 5.0 | 0.00 | 0.00 | 0.00 | 66 | 1009.9 |
| 20260509102547 | 51 | 59 | 1.0 | 2.0 | 0.00 | 0.00 | 0.00 | 67 | 1009.9 |
| 20260509102044 | 51 | 101 | 2.0 | 2.0 | 0.00 | 0.00 | 0.00 | 67 | 1009.6 |
| 20260509101540 | 52 | 121 | 0.0 | 0.0 | 0.00 | 0.00 | 0.00 | 66 | 1009.4 |
| 20260509101038 | 52 | 108 | 0.0 | 0.0 | 0.00 | 0.00 | 0.00 | 66 | 1009.5 |
| 20260509100535 | 52 | 86 | 1.0 | 2.0 | 0.00 | 0.00 | 0.00 | 65 | 1009.9 |
| 20260509100032 | 52 | 110 | 1.0 | 2.0 | 0.00 | 0.00 | 0.00 | 65 | 1009.6 |
| 20260509095529 | 52 | 122 | 0.0 | 0.0 | 0.00 | 0.00 | 0.00 | 66 | 1009.4 |
| 20260509095026 | 52 | 113 | 0.0 | 0.0 | 0.00 | 0.00 | 0.00 | 65 | 1009.5 |
| 20260509094522 | 52 | 89 | 1.0 | 1.0 | 0.00 | 0.00 | 0.00 | 65 | 1009.2 |
| 20260509094020 | 52 | 102 | 1.0 | 2.0 | 0.00 | 0.00 | 0.00 | 65 | 1009.3 |
| 20260509093518 | 53 | 117 | 0.0 | 0.0 | 0.00 | 0.00 | 0.00 | 65 | 1009.3 |
| 20260509093015 | 53 | 43 | 2.0 | 2.0 | 0.00 | 0.00 | 0.00 | 64 | 1009.1 |
| 20260509092513 | 53 | 116 | 1.0 | 1.0 | 0.00 | 0.00 | 0.00 | 64 | 1009.0 |
| 20260509092011 | 54 | 93 | 1.0 | 1.0 | 0.00 | 0.00 | 0.00 | 63 | 1009.2 |
| 20260509091508 | 53 | 83 | 0.0 | 1.0 | 0.00 | 0.00 | 0.00 | 63 | 1009.3 |
| 20260509091004 | 53 | 216 | 3.0 | 3.0 | 0.00 | 0.00 | 0.00 | 64 | 1009.0 |
| 20260509090502 | 53 | 69 | 0.0 | 0.0 | 0.00 | 0.00 | 0.00 | 64 | 1009.0 |
| 20260509090000 | 53 | 66 | 0.0 | 0.0 | 0.00 | 0.00 | 0.00 | 64 | 1009.0 |
| 20260509085456 | 53 | 39 | 3.0 | 3.0 | 0.00 | 0.00 | 0.00 | 64 | 1008.8 |
| 20260509084952 | 53 | 60 | 2.0 | 2.0 | 0.00 | 0.00 | 0.00 | 63 | 1008.9 |
| 20260509084449 | 53 | 101 | 0.0 | 0.0 | 0.00 | 0.00 | 0.00 | 63 | 1008.6 |
| 20260509083947 | 53 | 98 | 0.0 | 0.0 | 0.00 | 0.00 | 0.00 | 64 | 1008.8 |
| 20260509083444 | 53 | 98 | 0.0 | 0.0 | 0.00 | 0.00 | 0.00 | 63 | 1008.9 |
| 20260509082941 | 53 | 98 | 0.0 | 0.0 | 0.00 | 0.00 | 0.00 | 63 | 1008.8 |
| 20260509082438 | 54 | 97 | 0.0 | 0.0 | 0.00 | 0.00 | 0.00 | 63 | 1008.7 |
| 20260509081935 | 54 | 96 | 0.0 | 0.0 | 0.00 | 0.00 | 0.00 | 62 | 1008.6 |
| 20260509081432 | 55 | 94 | 0.0 | 0.0 | 0.00 | 0.00 | 0.00 | 61 | 1008.8 |
| 20260509080929 | 55 | 93 | 0.0 | 0.0 | 0.00 | 0.00 | 0.00 | 60 | 1008.4 |
| 20260509080427 | 56 | 88 | 0.0 | 0.0 | 0.00 | 0.00 | 0.00 | 60 | 1008.7 |
| 20260509075925 | 57 | 115 | 0.0 | 0.0 | 0.00 | 0.00 | 0.00 | 59 | 1008.7 |
| 20260509075422 | 58 | 60 | 2.0 | 2.0 | 0.00 | 0.00 | 0.00 | 58 | 1008.4 |
| 20260509074920 | 57 | 48 | 3.0 | 3.0 | 0.00 | 0.00 | 0.00 | 58 | 1008.7 |
| 20260509074417 | 57 | 37 | 5.0 | 6.0 | 0.00 | 0.00 | 0.00 | 58 | 1008.6 |
| 20260509073913 | 56 | 86 | 1.0 | 1.0 | 0.00 | 0.00 | 0.00 | 59 | 1008.7 |
| 20260509073410 | 56 | 104 | 0.0 | 0.0 | 0.00 | 0.00 | 0.00 | 59 | 1008.7 |
| 20260509072906 | 57 | 6 | 2.0 | 2.0 | 0.00 | 0.00 | 0.00 | 58 | 1008.7 |
| 20260509072403 | 57 | 296 | 4.0 | 5.0 | 0.00 | 0.00 | 0.00 | 58 | 1008.4 |
| 20260509071859 | 57 | 89 | 2.0 | 3.0 | 0.00 | 0.00 | 0.00 | 57 | 1008.6 |
| 20260509071356 | 58 | 117 | 0.0 | 0.0 | 0.00 | 0.00 | 0.00 | 57 | 1008.3 |
| 20260509070854 | 59 | 99 | 1.0 | 1.0 | 0.00 | 0.00 | 0.00 | 56 | 1008.4 |
| 20260509070350 | 59 | 45 | 3.0 | 3.0 | 0.00 | 0.00 | 0.00 | 56 | 1008.4 |
| 20260509065846 | 58 | 312 | 2.0 | 2.0 | 0.00 | 0.00 | 0.00 | 56 | 1008.3 |
| 20260509065343 | 58 | 340 | 4.0 | 5.0 | 0.00 | 0.00 | 0.00 | 56 | 1008.1 |